{"data":{"norad_id":58223,"intl_designator":"2023-170T","name":"STARLINK-30840","alt_names":[],"object_type":"PAYLOAD","status":"ACTIVE","operator":null,"country":"US","launch_date":"2023-11-03","launch_site_code":"AFETR","launch_vehicle":null,"mission":null,"orbit_class":"UNKNOWN","rcs_meters":null,"size_class":null,"mass_kg":null,"dimensions":null,"purposes":["comms"],"wikipedia_slug":null,"has_3d_model":false,"image_url":null,"decayed_at":null,"tle_current":{"epoch":"2026-05-24T23:36:30.428064Z","epoch_age_seconds":87163,"freshness":"FRESH","line1":"1 58223U 23170T   26144.98368551 -.00000142  00000+0  43475-5 0  9990","line2":"2 58223  43.0026 123.6762 0000912 271.0371  89.0376 15.27574492141967","mean_motion":15.27574492,"eccentricity":9.12e-5,"inclination_deg":43.0026,"raan_deg":123.6762,"arg_perigee_deg":271.0371,"mean_anomaly_deg":89.0376,"bstar":4.3475e-6,"rev_number":14196,"period_min":94.267088612789,"perigee_km":482.43984734659,"apogee_km":483.69133069882,"semimajor_km":6861.2025890227,"source":"CELESTRAK","updated_at":"2026-05-25T13:38:18.577620Z"}}}